Airfield :
LOGIN :

Register | Disclaimer

   EN    FR    IT 

 










Legend :    VFR   Marginal VFR   IFR   Intensive IFR   Very Intensive IFR
Visi :
Ceiling :
>= 8 km
>= 3000ft
5 to 8 km
1000 to 3000 ft
1500m to 5 km
500 to 1000 ft
800 to 1500m
200 to 500 ft
< 800m
< 200 ft
Symbols :   Thunderstorms  Fog  Heavy snow  Heavy precipitations  Wind > 20 kt
SIGMETs :     Misc.  Thunderstorms  Icing  Turbulence  Mountain Waves  Volcanic Ashes







- Airport Elevation : 144 ft
- IATA code : PGF
- Download approach charts


LFMP - Perpignan

CURRENT METAR :
  • 182100Z AUTO 26011KT 220V290 CAVOK 11/05 Q1021 NOSIG

EXPIRED METARs :
  • 182030Z AUTO 30009KT 260V340 CAVOK 12/05 Q1021 NOSIG
  • 182000Z AUTO 31006KT 250V360 CAVOK 12/05 Q1021 NOSIG
  • 181930Z AUTO 31014KT 280V340 CAVOK 13/05 Q1020 NOSIG
  • 181900Z AUTO 32015G25KT CAVOK 13/04 Q1020 BECMG 33014KT
  • 181830Z AUTO 32017G29KT CAVOK 13/05 Q1020 BECMG 33014KT

TAF TAF LFMP
Valid from the 18 at 15:00 until the 19 at 15:00 UTC


181400Z 1815/1915 33014KT CAVOK
TEMPO 1815/1818 33018G30KT
TEMPO 1905/1911 33015G30KT
ATIS : +33 4 68 63 75 12
No reported NOTAMs for that airfield.



MET'MAP, your aeronautical weather chart ! - Copyright ORBIFLY December 2007 - Disclaimer

ORBIFLY MET'MAP TEAM :

Programming & Development : Alexandra Zaïnal
Concept & Development : Baudouin d'Aumeries
Co-Development & Prog : Marc-Olivier Méhu
Technical & hardware support : Manuel Goepfert

Contact : metmap@orbifly.com




SOURCES & CREDITS :

   NOAA